920  
ASUS46 KSTO 191115  
RWRCA  
 
NORTHERN AND CENTRAL CA REGIONAL WEATHER ROUNDUP  
NATIONAL WEATHER SERVICE SACRAMENTO CA  
400 AM PDT FRI AUG 19 2022  
 
NOTE: FAIR INDICATES FEW OR NO CLOUDS BELOW 12,000 FEET WITH NO  
SIGNIFICANT WEATHER AND/OR S TO VISIBILITY
.  
 
CAZ001-003-191200-  
NORTHWEST AREA  
 
CITY SKY/WX TMP DP RH WIND PRES REMARKS
 
CRESCENT CITY CLOUDY 59 57 93 VRB3 30.02S FOG  
UKIAH CLEAR 62 49 62 CALM 29.90S  

 
 
CAZ006-505>513-191200-  
BAY AREA  
 
CITY SKY/WX TMP DP RH WIND PRES REMARKS
 
SANTA ROSA FOG 54 54 100 CALM 29.88F VSB 1/4  
SAN RAFAEL N/A 57 MM MM MISG  
NAPA CLOUDY 61 57 87 SW8 29.87F  
CONCORD CLEAR 62 55 77 S14 29.85F  
OAKLAND CITY N/A 58 MM MM MISG  
OAKLAND MOCLDY 59 56 89 CALM 29.90F  
SAN FRAN CITY N/A 57 MM 98 MISG  
SAN FRAN ARPT MOCLDY 59 55 87 W13 29.89F  
LIVERMORE CLEAR 60 56 86 NW3 29.88S  
HAYWARD CLOUDY 60 57 89 W7 29.90S  
REDWOOD CITY N/A 60 MM 88 MISG  
MOFFETT ARPT CLOUDY 63 59 88 CALM 29.90S  
SAN JOSE ARPT MOCLDY 61 57 87 NW3 29.90S  

 
CAZ034-037-514>518-191200-  
CENTRAL COAST  
 
CITY SKY/WX TMP DP RH WIND PRES REMARKS
 
WATSONVILLE FOG 54 54 100 CALM 29.91F VSB 1/2  
SALINAS CLOUDY 59 56 89 NW5 29.90F FOG  
MONTEREY CLOUDY 59 56 89 SW6 29.92S  
SAN LUIS OBISP CLOUDY 54 54 100 CALM 29.88S  
SANTA MARIA CLOUDY 54 53 97 NW7 29.89S FOG  
HALF MOON BAY CLOUDY 57 57 100 NW7 29.92F FOG  

 
CAZ015-016-191200-  
NORTHERN SACRAMENTO VALLEY  
 
CITY SKY/WX TMP DP RH WIND PRES REMARKS
 
REDDING CLEAR 83 55 38 NW6 29.81S  
RED BLUFF CLEAR 79 53 40 CALM 29.82S  
OROVILLE CLEAR 74 52 46 E5 29.83R  

 
CAZ016>018-191200-  
SOUTHERN SACRAMENTO VALLEY  
 
CITY SKY/WX TMP DP RH WIND PRES REMARKS
 
AUBURN CLEAR 79 46 31 E10 29.87F  
BEALE AFB CLEAR 64 52 64 CALM 29.80S  
LINCOLN FAIR 66 50 55 SE6 29.80S  
MARYSVILLE CLEAR 67 52 58 SE5 29.81S  
SAC INTL ARPT CLEAR 66 55 67 S6 29.79S  
MATHER AIRPORT CLEAR 61 52 72 SE6 29.80S  
DOWNTOWN SAC N/A 65 MM MM MISG  
SAC EXEC ARPT CLEAR 64 55 72 S3 29.81S  
VACAVILLE CLEAR 66 54 65 SW7 29.80S  
TRAVIS AFB CLEAR 59 56 88 SW24 29.78F  

 
CAZ019>021-191200-  
SAN JOAQUIN VALLEY  
 
CITY SKY/WX TMP DP RH WIND PRES REMARKS
 
STOCKTON CLEAR 66 51 58 N7 29.80F  
MODESTO CLEAR 69 48 47 N6 29.79S  
MERCED CLEAR 67 52 58 W5 29.79S  
LEMOORE CLEAR 74 47 38 CALM 29.81R  
FRESNO PTCLDY 77 47 34 CALM 29.80S  
HANFORD CLEAR 71 53 52 CALM 29.81S  
PORTERVILLE CLEAR 71 56 58 SE7 29.83S  
BAKERSFIELD CLEAR 80 53 39 NE5 29.82F  

 
CAZ011-012-071-191200-  
NORTHERN MOUNTAINS  
 
CITY SKY/WX TMP DP RH WIND PRES REMARKS
 
YREKA CLEAR 66 47 50 NE6 30.02S  
MOUNT SHASTA CLEAR 57 48 72 CALM 30.06R  
ALTURAS CLEAR 49 45 86 CALM 30.12F  

 
CAZ011-012-071-191200-  
SIERRA NEVADA MTNS  
 
CITY SKY/WX TMP DP RH WIND PRES REMARKS
 
BLUE CANYON CLEAR 72 41 32 NE5 30.17S  
TRUCKEE CLEAR 46 41 81 CALM 30.23S  
TAHOE VLY ARPT CLEAR 45 39 79 S5 30.23F  
MAMMOTH LAKES FAIR 54 41 62 CALM 30.31S  

 
 
 
CLICK HERE TO GO TO PREVIOUS BULLETINS.

The Nexlab CA Page Main Text Page